Location: Unspecified
(0.0000°N, 0.0000°E)
Time: 08:20:00
(UTC+02:00)

Meteor 2-8 Rocket - Visible Passes

Search period start: 02 August 2015 00:00
Search period end: 12 August 2015 00:00
Orbit: 938 x 957 km, 82.5° (Epoch: 01 August)

Date Brightness Start Highest point End Pass type
(mag) Time Alt. Az. Time Alt. Az. Time Alt. Az.
02 Aug 7.2 05:50:35 10° ESE 05:53:00 13° E 05:55:54 10° ENE visible
02 Aug 4.8 07:32:00 10° SSW 07:37:47 45° W 07:43:32 10° NNW visible
03 Aug 6.5 06:05:17 10° SSE 06:10:02 25° E 06:14:59 10° NE visible
04 Aug 5.5 06:21:16 10° SSE 06:27:00 45° E 06:32:49 10° NNE visible
05 Aug 4.5 06:37:49 10° S 06:43:56 82° E 06:50:03 10° N visible
06 Aug 4.5 06:54:53 10° SSW 07:00:50 55° W 07:06:47 10° N visible
07 Aug 6.7 05:28:54 10° SE 05:33:03 20° E 05:37:30 10° NE visible
07 Aug 5.2 07:12:28 10° SW 07:17:47 30° W 07:22:58 10° NNW visible
08 Aug 5.7 05:45:41 15° SSE 05:50:03 36° E 05:55:38 10° NNE visible
08 Aug 5.8 07:30:57 10° SW 07:34:49 16° W 07:38:18 10° NW visible
09 Aug 4.7 06:03:56 30° SSE 06:06:59 67° E 06:13:04 10° NNE visible
10 Aug 4.3 06:22:05 46° SSW 06:23:54 69° W 06:29:58 10° N visible
11 Aug 6.8 04:55:59 16° E 04:56:04 16° E 04:59:50 10° ENE visible
11 Aug 4.9 06:40:08 37° W 06:40:50 38° W 06:46:23 10° NNW visible
